Date String (YYYY-MM-DD hh:mm:ss) UTC,Instrument flags,Ambient pressure (hPa),Sample flow (lpm),Bypass flow (lpm),Sample temperature (°C),Ambient temperature (°C),ASC tube jacket temperature (°C),LED temperature (°C),Box temperature (°C),Sample RH (%),Span deviation,Mass concentration (μg/m³),Mass concentration (μg/m³),Mass concentration (μg/m³)
DateTimeUTC,F1_M11,P_M11,Q1_M11,Q2_M11,T1_M11,T2_M11,T3_M11,T4_M11,T5_M11,U1_M11,ZSPAN_M11,X0_M11,X2_M11,X1_M11
2023-02-18 04:00:00,,0826.0,5.05,0.00,23.5,21.6,00.0,32.5,25.1,05.8,0000.0,0001.47,0000.73,0000.56
2023-02-18 04:01:00,,0825.9,5.00,0.00,23.5,21.5,00.0,32.5,25.1,05.9,0000.0,0001.46,0000.72,0000.55
2023-02-18 04:02:00,,0825.9,4.98,0.00,23.4,21.5,00.0,32.5,25.0,05.6,0000.0,0001.47,0000.72,0000.54
2023-02-18 04:03:00,,0825.9,5.01,0.00,23.4,21.5,00.0,32.4,25.0,05.6,0000.0,0001.51,0000.72,0000.53
2023-02-18 04:04:00,,0825.9,5.00,0.00,23.4,21.4,00.0,32.4,25.0,06.0,0000.0,0001.51,0000.71,0000.52
2023-02-18 04:05:00,,0825.9,4.98,0.00,23.3,21.3,00.0,32.4,25.0,06.2,0000.0,0001.44,0000.70,0000.53
2023-02-18 04:06:00,,0825.9,4.95,0.00,23.3,21.3,00.0,32.4,25.0,06.2,0000.0,0001.47,0000.72,0000.53
2023-02-18 04:07:00,,0825.9,5.02,0.00,23.3,21.2,00.0,32.4,24.9,06.3,0000.0,0001.50,0000.73,0000.54
2023-02-18 04:08:00,,0825.8,5.01,0.00,23.3,21.2,00.0,32.3,24.9,06.2,0000.0,0001.53,0000.75,0000.55
2023-02-18 04:09:00,,0825.8,5.00,0.00,23.2,21.1,00.0,32.3,24.9,06.3,0000.0,0001.56,0000.76,0000.55
2023-02-18 04:10:00,,0825.8,5.00,0.00,23.2,21.1,00.0,32.3,24.9,06.1,0000.0,0001.37,0000.74,0000.57
2023-02-18 04:11:00,,0825.9,5.00,0.00,23.2,21.0,00.0,32.2,24.9,06.2,0000.0,0001.13,0000.75,0000.58
2023-02-18 04:12:00,,0825.9,4.96,0.00,23.2,21.0,00.0,32.2,24.9,06.1,0000.0,0001.16,0000.77,0000.60
2023-02-18 04:13:00,,0825.9,4.98,0.00,23.1,21.0,00.0,32.2,24.8,06.4,0000.0,0001.18,0000.77,0000.61
2023-02-18 04:14:00,,0826.0,4.97,0.00,23.1,21.0,00.0,32.2,24.8,06.4,0000.0,0001.10,0000.74,0000.61
2023-02-18 04:15:00,,0826.0,5.01,0.00,23.1,21.0,00.0,32.2,24.7,06.5,0000.0,0001.09,0000.74,0000.61
2023-02-18 04:16:00,,0826.0,5.00,0.00,23.1,21.0,00.0,32.1,24.7,06.7,0000.0,0001.09,0000.75,0000.61
2023-02-18 04:17:00,,0825.9,5.04,0.00,23.0,21.0,00.0,32.1,24.7,06.7,0000.0,0001.03,0000.74,0000.61
2023-02-18 04:18:00,,0825.9,4.99,0.00,23.0,21.0,00.0,32.1,24.7,06.7,0000.0,0001.02,0000.74,0000.62
2023-02-18 04:19:00,,0825.9,4.97,0.00,23.0,21.0,00.0,32.1,24.7,06.5,0000.0,0001.03,0000.75,0000.63
2023-02-18 04:20:00,,0825.9,5.00,0.00,23.0,21.0,00.0,32.0,24.7,06.6,0000.0,0001.02,0000.75,0000.65
2023-02-18 04:21:00,,0825.8,5.00,0.00,23.0,20.9,00.0,32.0,24.7,06.5,0000.0,0001.09,0000.79,0000.65
2023-02-18 04:22:00,,0825.8,4.99,0.00,22.9,20.9,00.0,32.0,24.6,06.1,0000.0,0001.21,0000.80,0000.65
2023-02-18 04:23:00,,0825.8,5.00,0.00,22.9,20.9,00.0,32.0,24.6,06.4,0000.0,0001.20,0000.78,0000.64
2023-02-18 04:24:00,,0825.8,5.02,0.00,22.9,20.9,00.0,31.9,24.5,06.5,0000.0,0001.19,0000.77,0000.63
2023-02-18 04:25:00,,0826.0,5.02,0.00,22.9,20.9,00.0,31.9,24.5,06.2,0000.0,0001.20,0000.78,0000.63
2023-02-18 04:26:00,,0826.1,5.01,0.00,22.8,20.8,00.0,31.9,24.5,06.4,0000.0,0001.20,0000.79,0000.65
2023-02-18 04:27:00,,0826.0,4.99,0.00,22.8,20.8,00.0,31.9,24.5,06.4,0000.0,0001.22,0000.81,0000.67
2023-02-18 04:28:00,,0825.8,5.00,0.00,22.8,20.8,00.0,31.8,24.4,06.3,0000.0,0001.29,0000.83,0000.69
2023-02-18 04:29:00,,0826.3,5.00,0.00,22.7,20.8,00.0,31.8,24.4,06.5,0000.0,0001.81,0000.88,0000.69
2023-02-18 04:30:00,,0825.7,4.99,0.00,22.7,20.8,00.0,31.8,24.4,06.7,0000.0,0002.05,0000.89,0000.70
2023-02-18 04:31:00,,0825.7,5.00,0.00,22.7,20.7,00.0,31.8,24.4,06.6,0000.0,0002.10,0000.90,0000.71
2023-02-18 04:32:00,,0825.7,4.97,0.00,22.7,20.7,00.0,31.8,24.3,06.7,0000.0,0002.13,0000.89,0000.72
2023-02-18 04:33:00,,0825.7,4.99,0.00,22.7,20.7,00.0,31.7,24.4,06.5,0000.0,0002.03,0000.89,0000.73
2023-02-18 04:34:00,,0825.7,5.01,0.00,22.6,20.7,00.0,31.7,24.3,06.5,0000.0,0002.04,0000.90,0000.73
2023-02-18 04:35:00,,0825.7,5.05,0.00,22.6,20.7,00.0,31.7,24.3,06.1,0000.0,0002.02,0000.88,0000.71
2023-02-18 04:36:00,,0825.7,5.00,0.00,22.6,20.6,00.0,31.6,24.3,06.3,0000.0,0002.05,0000.88,0000.71
2023-02-18 04:37:00,,0825.7,4.99,0.00,22.6,20.6,00.0,31.6,24.2,06.5,0000.0,0002.04,0000.86,0000.68
2023-02-18 04:38:00,,0826.1,5.05,0.00,22.6,20.6,00.0,31.6,24.2,06.8,0000.0,0002.01,0000.83,0000.65
2023-02-18 04:39:00,,0825.7,5.01,0.00,22.5,20.5,00.0,31.6,24.2,06.6,0000.0,0001.91,0000.78,0000.62
2023-02-18 04:40:00,,0825.7,5.00,0.00,22.5,20.5,00.0,31.6,24.2,06.4,0000.0,0001.38,0000.71,0000.59
2023-02-18 04:41:00,,0825.7,4.98,0.00,22.5,20.5,00.0,31.5,24.1,06.4,0000.0,0001.07,0000.67,0000.56
2023-02-18 04:42:00,,0825.9,5.01,0.00,22.4,20.5,00.0,31.5,24.1,06.6,0000.0,0000.96,0000.63,0000.52
2023-02-18 04:43:00,,0825.8,5.00,0.00,22.4,20.4,00.0,31.5,24.1,06.6,0000.0,0000.86,0000.58,0000.49
2023-02-18 04:44:00,,0825.7,5.00,0.00,22.4,20.4,00.0,31.5,24.0,06.5,0000.0,0000.84,0000.57,0000.48
2023-02-18 04:45:00,,0825.8,5.01,0.00,22.4,20.4,00.0,31.4,24.0,06.8,0000.0,0000.78,0000.55,0000.47
2023-02-18 04:46:00,,0825.7,4.98,0.00,22.3,20.4,00.0,31.4,24.0,06.7,0000.0,0000.74,0000.54,0000.48
2023-02-18 04:47:00,,0825.7,5.01,0.00,22.3,20.4,00.0,31.4,24.0,06.6,0000.0,0000.85,0000.55,0000.48
2023-02-18 04:48:00,,0825.7,5.00,0.00,22.3,20.4,00.0,31.4,24.0,06.7,0000.0,0000.89,0000.56,0000.48
2023-02-18 04:49:00,,0825.7,5.02,0.00,22.3,20.4,00.0,31.4,24.0,06.6,0000.0,0000.96,0000.56,0000.48
2023-02-18 04:50:00,,0825.8,5.00,0.00,22.3,20.4,00.0,31.3,23.9,06.5,0000.0,0000.98,0000.57,0000.48
2023-02-18 04:51:00,,0825.8,4.97,0.00,22.3,20.4,00.0,31.3,23.9,06.8,0000.0,0001.05,0000.58,0000.49
2023-02-18 04:52:00,,0825.7,5.01,0.00,22.2,20.3,00.0,31.3,23.9,06.7,0000.0,0001.15,0000.61,0000.49
2023-02-18 04:53:00,,0825.7,4.97,0.00,22.2,20.3,00.0,31.3,23.9,06.7,0000.0,0001.19,0000.64,0000.51
2023-02-18 04:54:00,,0825.7,4.98,0.00,22.2,20.3,00.0,31.3,23.8,06.8,0000.0,0001.19,0000.64,0000.52
2023-02-18 04:55:00,,0825.7,5.02,0.00,22.2,20.2,00.0,31.2,23.8,06.9,0000.0,0001.22,0000.66,0000.53
2023-02-18 04:56:00,,0825.7,4.95,0.00,22.1,20.2,00.0,31.2,23.8,06.9,0000.0,0001.28,0000.69,0000.53
2023-02-18 04:57:00,,0825.6,5.00,0.00,22.1,20.2,00.0,31.2,23.8,06.9,0000.0,0001.54,0000.70,0000.53
2023-02-18 04:58:00,,0825.6,4.97,0.00,22.1,20.1,00.0,31.2,23.7,06.7,0000.0,0001.79,0000.71,0000.53
2023-02-18 04:59:00,,0825.6,5.00,0.00,22.1,20.2,00.0,31.1,23.7,06.7,0000.0,0001.73,0000.70,0000.53
